Location: Cazavet
(43.0017°N, 1.0431°E)
Time: 21:13:58
(UTC+00:00)

NOSS 2-2 (C) - Pass Details

Date: 18 January 2026
Orbit: 379 x 1692 km, 63.3° (Epoch: 11 February)

Event Time Altitude Azimuth Distance (km) Brightness Sun altitude
Rises 06:17:19 0° 214° (SW) 2,675 6.6 -11.9°
Reaches altitude 10° 06:19:42 10° 215° (SW) 1,645 5.6 -11.5°
Maximum altitude 06:23:13 89° 120° (ESE) 420 2.7 -10.9°
Drops below altitude 10° 06:26:14 10° 36° (NE) 1,417 5.7 -10.3°
Sets 06:28:09 0° 37° (NE) 2,258 6.7 -10.0°
